PST,Max TemperatureF,Mean TemperatureF,Min TemperatureF,Max Dew PointF,MeanDew PointF,Min DewpointF,Max Humidity, Mean Humidity, Min Humidity, Max Sea Level PressureIn, Mean Sea Level PressureIn, Min Sea Level PressureIn, Max VisibilityMiles, Mean VisibilityMiles, Min VisibilityMiles, Max Wind SpeedMPH, Mean Wind SpeedMPH, Max Gust SpeedMPH,PrecipitationIn, CloudCover, Events, WindDirDegrees
2012-11-1,88,71,55,45,38,28,57,34,12,29.92,29.86,29.80,10,10,5,9,3,,0.00,0,,251
2012-11-2,86,70,55,53,44,37,64,44,21,29.91,29.86,29.82,10,10,7,7,3,,0.00,0,,295
2012-11-3,88,72,57,46,40,37,56,38,18,30.00,29.95,29.90,10,10,10,7,2,,0.00,0,,268
2012-11-4,91,73,55,44,36,27,55,33,10,30.06,30.01,29.98,10,10,10,8,6,,0.00,0,,282
2012-11-5,93,75,57,45,36,29,45,29,10,30.06,30.00,29.96,10,10,10,8,5,,0.00,0,,272
2012-11-6,93,75,57,45,38,33,44,31,12,30.03,29.96,29.91,10,10,10,7,4,,0.00,0,,256
2012-11-7,91,73,55,47,39,33,51,32,15,29.97,29.89,29.81,10,10,8,9,3,,0.00,0,,243
2012-11-8,80,73,64,57,46,34,61,41,27,29.89,29.83,29.75,10,8,1,24,9,39,0.00,3,Rain,258
2012-11-9,71,62,52,51,43,35,59,46,35,29.91,29.82,29.77,10,9,2,29,16,36,0.00,3,,258
2012-11-10,68,58,48,39,33,25,66,42,20,30.13,30.00,29.91,10,10,10,21,6,30,0.00,0,,276
2012-11-11,66,54,39,34,26,14,60,40,13,30.33,30.26,30.14,10,10,10,7,4,,0.00,0,,288
2012-11-12,70,54,37,28,21,12,60,33,11,30.32,30.23,30.15,10,10,10,8,6,,0.00,0,,278
2012-11-13,73,56,39,27,19,12,41,26,9,30.19,30.11,30.05,10,10,10,7,4,,0.00,0,,264
2012-11-14,80,60,41,34,24,17,42,28,10,30.10,30.03,29.98,10,10,10,8,3,,0.00,0,,268
2012-11-15,70,62,54,41,32,25,62,35,19,30.09,30.04,29.99,10,10,10,6,2,,0.00,1,,236
2012-11-16,79,64,48,51,38,31,65,41,19,30.07,30.02,29.97,10,10,9,9,3,,0.00,1,,201
2012-11-17,81,72,63,53,50,46,70,52,29,30.05,30.00,29.96,10,10,10,15,10,22,0.00,0,,273
2012-11-18,77,66,54,51,48,46,75,55,34,30.10,30.04,30.00,10,10,9,9,5,,0.00,0,,242
2012-11-19,77,64,50,51,45,42,74,55,32,30.19,30.13,30.09,10,8,2,7,4,,0.00,0,,279
2012-11-20,79,64,48,51,41,37,71,49,25,30.12,30.04,29.97,10,10,4,7,4,,0.00,0,,280
2012-11-21,80,64,48,44,40,36,68,47,21,30.04,29.98,29.93,10,10,7,7,3,,0.00,0,,267
2012-11-22,81,64,48,45,41,36,69,44,21,30.10,30.05,29.97,10,6,2,6,3,,0.00,0,,263
2012-11-23,82,66,51,44,37,31,59,39,15,30.18,30.10,30.05,10,8,4,7,4,,0.00,0,,265
2012-11-24,84,68,52,39,35,29,49,35,13,30.08,29.98,29.90,10,10,6,7,4,,0.00,0,,272
2012-11-25,84,68,51,41,34,30,53,34,14,29.91,29.85,29.78,10,10,10,7,3,,0.00,0,,245
2012-11-26,79,64,48,52,44,36,83,54,27,30.06,29.97,29.88,10,10,8,7,1,,0.00,0,,170
2012-11-27,80,66,51,44,39,34,69,44,21,30.13,30.05,30.00,10,10,10,9,4,,0.00,0,,276
2012-11-28,78,64,50,48,41,35,61,46,25,30.12,30.06,30.01,10,10,5,8,2,,0.00,0,,248
2012-11-29,81,67,53,55,49,41,72,54,39,30.15,30.09,30.03,10,10,8,10,3,,0.00,0,,225
2012-11-30,81,71,61,57,54,52,78,58,36,30.08,30.04,29.99,10,10,10,14,8,,0.00,0,,254